Kapolei, HI

4:02 PM HST on December 08, 2016 (GMT -1000)
Kalaeloa (John Rodgers Field)

Weather History for PHJR - May, 2012

Change the Weather History Date:

Wednesday, May 23, 2012

  Actual Average (PHNL) Record (PHNL)
Temperature  
Mean Temperature 78 °F -  
Max Temperature 84 °F 84 °F 91 °F (1995)
Min Temperature 71 °F 70 °F 65 °F (1979)
Cooling Degree Days 12    
Growing Degree Days 28 (Base 50)    
Moisture  
Dew Point 63 °F    
Average Humidity 62    
Maximum Humidity 90    
Minimum Humidity 46    
Precipitation  
Precipitation 0.00 in - - ()
Sea Level Pressure  
Sea Level Pressure 30.12 in    
Wind  
Wind Speed 9 mph (ENE)    
Max Wind Speed 14 mph    
Max Gust Speed 26 mph    
Visibility 10 miles    
Events Rain    
Averages and records for this station are not official NWS values.
T = Trace of Precipitation, MM = Missing Value Source: NWS Daily Summary

Daily Weather History Graph

Daily Weather History Graph

Search for Another Location

Airport or City:

Trip Planner

Search our weather history database for the weather conditions in past years. The results will help you decide how hot, cold, wet, or windy it might be!

Date:

Astronomy

May. 23, 2012 Rise Set
Actual Time 5:51 AM HST 7:07 PM HST
Civil Twilight 5:26 AM HST 7:31 PM HST
Nautical Twilight 4:58 AM HST 8:00 PM HST
Astronomical Twilight 4:28 AM HST 8:30 PM HST
Moon 8:05 AM HST (5/23) 9:38 PM HST (5/23)
Length of Visible Light 14h 04m
Length of Day
13h 15m
Waxing Crescent, 8% of the Moon is Illuminated
May 23
Waxing Crescent
May 28
First Quarter
Jun 4
Full
Jun 11
Last Quarter
Jun 19
New

Hourly Weather History & Observations

Time (HST) Temp. Heat Index Dew Point Humidity Pressure Visibility Wind Dir Wind Speed Gust Speed Precip Events Conditions
12:53 AM 75.0 °F - 62.1 °F 64% 30.11 in 10.0 mi ENE 12.7 mph 23.0 mph N/A   Partly Cloudy
1:53 AM 73.9 °F - 60.1 °F 62% 30.10 in 10.0 mi ENE 9.2 mph 17.3 mph N/A   Clear
2:53 AM 73.9 °F - 61.0 °F 64% 30.09 in 10.0 mi ENE 9.2 mph - N/A   Scattered Clouds
3:53 AM 73.0 °F - 60.1 °F 64% 30.09 in 10.0 mi ENE 5.8 mph - N/A   Mostly Cloudy
4:53 AM 72.0 °F - 61.0 °F 68% 30.09 in 10.0 mi ENE 5.8 mph - N/A   Clear
5:53 AM 73.0 °F - 61.0 °F 66% 30.11 in 10.0 mi Variable 3.5 mph - N/A   Partly Cloudy
6:53 AM 75.0 °F - 62.1 °F 64% 30.13 in 10.0 mi Variable 5.8 mph - N/A   Mostly Cloudy
7:53 AM 75.9 °F - 61.0 °F 60% 30.14 in 8.0 mi NE 8.1 mph - N/A   Mostly Cloudy
8:53 AM 79.0 °F - 62.1 °F 56% 30.14 in 10.0 mi ENE 9.2 mph 18.4 mph N/A   Partly Cloudy
9:53 AM 80.1 °F 81.5 °F 63.0 °F 56% 30.15 in 10.0 mi Variable 6.9 mph 17.3 mph N/A   Clear
10:53 AM 80.1 °F 81.2 °F 62.1 °F 54% 30.15 in 10.0 mi ESE 11.5 mph 19.6 mph N/A   Partly Cloudy
11:53 AM 84.0 °F 84.4 °F 61.0 °F 46% 30.13 in 10.0 mi East 9.2 mph - N/A   Mostly Cloudy
12:53 PM 84.0 °F 84.4 °F 61.0 °F 46% 30.13 in 10.0 mi ENE 10.4 mph 19.6 mph N/A   Partly Cloudy
1:53 PM 84.0 °F 84.9 °F 63.0 °F 49% 30.09 in 10.0 mi ESE 10.4 mph 26.5 mph N/A   Mostly Cloudy
2:53 PM 82.0 °F 83.8 °F 64.9 °F 56% 30.09 in 10.0 mi East 8.1 mph 21.9 mph N/A   Scattered Clouds
3:53 PM 82.0 °F 83.4 °F 64.0 °F 54% 30.07 in 10.0 mi East 11.5 mph 21.9 mph N/A   Mostly Cloudy
4:53 PM 81.0 °F 81.9 °F 62.1 °F 52% 30.07 in 10.0 mi East 13.8 mph 25.3 mph N/A   Clear
5:53 PM 80.1 °F 81.5 °F 63.0 °F 56% 30.09 in 10.0 mi ENE 9.2 mph 18.4 mph N/A   Clear
6:53 PM 75.9 °F - 64.0 °F 67% 30.11 in 10.0 mi ENE 8.1 mph - N/A   Mostly Cloudy
7:53 PM 75.0 °F - 64.9 °F 71% 30.13 in 10.0 mi East 8.1 mph - N/A   Partly Cloudy
8:53 PM 73.9 °F - 64.9 °F 73% 30.15 in 10.0 mi Variable 5.8 mph - 0.00 in Rain Light Rain
9:53 PM 71.1 °F - 68.0 °F 90% 30.16 in 10.0 mi ENE 4.6 mph - 0.00 in   Mostly Cloudy
10:53 PM 73.0 °F - 66.0 °F 79% 30.17 in 10.0 mi ENE 4.6 mph - N/A   Mostly Cloudy
11:53 PM 73.0 °F - 64.9 °F 76% 30.16 in 10.0 mi ENE 5.8 mph - N/A   Mostly Cloudy